EDT,Max TemperatureF,Mean TemperatureF,Min TemperatureF,Max Dew PointF,MeanDew PointF,Min DewpointF,Max Humidity, Mean Humidity, Min Humidity, Max Sea Level PressureIn, Mean Sea Level PressureIn, Min Sea Level PressureIn, Max VisibilityMiles, Mean VisibilityMiles, Min VisibilityMiles, Max Wind SpeedMPH, Mean Wind SpeedMPH, Max Gust SpeedMPH,PrecipitationIn, CloudCover, Events, WindDirDegrees
2013-4-1,51,44,35,45,34,21,100,68,43,30.14,30.01,29.88,10,10,7,14,7,22,0.00,5,,305
2013-4-2,48,37,26,23,19,12,80,50,24,30.28,30.21,30.14,10,10,10,12,4,16,0.00,0,,333
2013-4-3,50,37,24,23,20,19,80,50,30,30.37,30.31,30.25,10,10,10,15,5,22,0.00,0,,56
2013-4-4,50,42,35,41,28,18,93,61,42,30.26,30.12,30.02,10,10,10,10,6,,0.00,4,,112
2013-4-5,64,48,32,41,33,28,100,62,30,30.12,30.05,30.00,10,9,0,12,3,17,0.00,1,Fog,343
2013-4-6,69,51,33,37,32,28,87,51,25,30.18,30.09,29.99,10,10,10,13,3,17,0.00,0,,190
2013-4-7,73,62,51,45,40,36,55,46,27,30.06,30.02,29.96,10,10,10,18,10,30,0.00,5,,220
2013-4-8,73,60,46,52,47,41,87,62,46,30.05,30.01,29.95,10,10,10,24,6,33,0.00,4,,210
2013-4-9,78,66,53,55,53,50,88,65,42,30.12,30.07,30.01,10,10,10,20,6,28,0.00,3,,213
2013-4-10,82,66,51,59,54,50,94,66,39,30.07,29.98,29.85,10,10,10,20,6,26,0.00,2,,208
2013-4-11,73,64,55,61,56,52,100,76,57,29.86,29.75,29.59,10,9,2,21,6,31,0.00,5,Rain,229
2013-4-12,57,49,41,55,38,32,100,68,47,29.97,29.81,29.57,10,10,4,18,9,26,0.00,6,Rain,280
2013-4-13,62,48,33,37,33,32,93,61,32,30.09,30.04,29.98,10,10,5,14,4,21,0.00,0,,280
2013-4-14,71,53,35,50,40,34,100,65,29,30.06,29.99,29.89,10,10,10,17,3,26,0.00,1,Rain,184
2013-4-15,71,61,51,54,52,48,100,76,50,30.05,30.00,29.94,10,10,7,9,4,,0.00,6,Rain,188
2013-4-16,80,66,53,64,59,52,94,73,51,30.19,30.11,30.01,10,10,7,20,8,24,0.00,3,Rain,209
2013-4-17,71,65,59,64,60,57,100,93,68,30.22,30.13,30.02,10,9,2,13,4,21,0.00,5,Rain,162
2013-4-18,80,70,59,59,55,50,88,63,36,30.02,29.91,29.70,10,10,10,23,10,32,0.00,0,,195
2013-4-19,71,54,37,61,41,32,100,73,53,30.08,29.83,29.57,10,9,2,24,15,31,0.00,7,Rain,259
2013-4-20,55,44,32,32,31,27,100,65,33,30.35,30.21,30.08,10,10,10,14,7,18,0.00,0,,285
2013-4-21,59,46,32,34,32,28,93,58,36,30.47,30.39,30.32,10,10,10,12,6,,0.00,0,,56
2013-4-22,69,52,35,43,37,32,93,58,30,30.34,30.25,30.15,10,10,10,10,2,,0.00,0,,176
2013-4-23,69,56,42,50,45,37,93,65,46,30.17,30.09,29.98,10,10,10,14,4,18,0.00,1,,206
2013-4-24,62,52,41,55,45,36,94,77,63,30.27,30.02,29.84,10,9,1,26,9,37,0.00,6,Rain,247
2013-4-25,60,46,32,37,34,32,100,69,36,30.38,30.33,30.27,10,9,5,10,3,20,0.00,1,,276
2013-4-26,60,48,35,45,36,32,87,63,39,30.46,30.40,30.34,10,10,10,10,3,,0.00,2,,68
2013-4-27,55,52,50,52,48,43,100,86,71,30.37,30.24,30.08,10,8,2,16,3,25,0.00,8,Rain,164
2013-4-28,68,60,51,59,53,52,100,88,64,30.08,29.95,29.88,10,8,1,20,9,29,0.00,7,Rain,205
2013-4-29,62,55,48,52,51,46,100,87,63,30.05,30.01,29.96,10,8,3,6,2,,0.00,6,,253
2013-4-30,77,60,42,55,50,43,100,74,38,30.08,30.04,29.99,10,8,1,7,1,,0.00,0,,181